sat.trackr.live / text

‹ back to catalog

STARLINK-30910

NORAD 58376 · 2023-178C

PAYLOAD ACTIVE UNKNOWN

§ Identity

Operator
Country
US
Launch date
2023-11-20
Launch site
AFWTR
Launch vehicle
Mass (kg)
RCS (m²)

Purposes: comms

External: N2YO · Heavens-Above · Gunter

§ Orbital elements

Epoch: 2026-09-20T10:58:03.616320Z

Period
93.85 min
Inclination
53.1566°
Eccentricity
0.0000345
Mean motion
15.34390631 rev/d
Perigee alt
462.5 km
Apogee alt
463.0 km
Semi-major
6,840.9 km
B*
4.2850e-5
RAAN
171.9752°
Arg perigee
122.6732°
Mean anomaly
237.4304°
Rev number
15,977

§ Raw data

STARLINK-309101 58376U 23178C   26263.45698630  .00001072  00000+0  42850-4 0  99922 58376  53.1566 171.9752 0000345 122.6732 237.4304 15.34390631159771

JSON: /api/v1/satellites/58376 · /tle

For live sub-satellite position, see the globe view (requires WebGL).

§ Visibility from observer

Set your observer location to see the next 7 days of passes ≥ 10°. The values pass through the URL so the page stays shareable.

No JS? Fill the form by hand. The geolocation button needs JavaScript.